Regional Weather Roundup
Issued by NWS

Home | Current Version | Previous Version | Text Only | Print | Product List | Glossary On
Versions: 1 2 3 4 5 6 7 8 9 10 11 12 13 14 15 16 17 18 19 20 21 22 23 24 25 26 27 28 29 30 31 32 33 34 35 36 37 38 39 40 41 42 43 44 45 46 47 48 49 50
000
ASUS44 KLUB 051310
RWRTX
WEST TEXAS WEATHER ROUNDUP
NATIONAL WEATHER SERVICE LUBBOCK TX
800 AM CDT SUN JUL 05 2015

NOTE: "FAIR" INDICATES FEW OR NO CLOUDS BELOW 12,000 FEET WITH NO
SIGNIFICANT WEATHER AND/OR OBSTRUCTIONS TO VISIBILITY.

TXZ004-006>008-010-012-014-016-OKZ002-051400-
TEXAS PANHANDLE/OKLAHOMA PANHANDLE

CITY           SKY/WX    TMP DP  RH WIND       PRES   REMARKS
AMARILLO       SUNNY     70  61  73 S15       30.06R
BORGER         SUNNY     75  63  66 S12G18    30.01R
CANADIAN       SUNNY     75  67  76 SW5       29.98R
DALHART        SUNNY     72  62  71 S10       30.05S
DUMAS          SUNNY     71  62  73 SW9       30.04R
GUYMON         SUNNY     74  62  66 S17       29.95F
HEREFORD       MOSUNNY   71  64  81 MISG      30.08R
PAMPA          SUNNY     72  62  71 S12       30.05R
PERRYTON       SUNNY     75  63  65 S13       29.98S
$$

TXZ026-029-035-045-048-051400-
SOUTHERN PANHANDLE/SOUTH PLAINS/ROLLING PLAINS

CITY           SKY/WX    TMP DP  RH WIND       PRES   REMARKS
CHILDRESS      SUNNY     76  65  68 SW10      30.00R
SEMINOLE       MOSUNNY   69  65  84 SE7       30.08R
LUBBOCK        PTSUNNY   74  66  76 S14       30.06R
PLAINVIEW      MOSUNNY   70  68  95 S9        30.06R
SNYDER         MOSUNNY   73  69  87 S10       30.05S
$$

TXZ052-054-060>062-072-078-127-140-154-169-051400-
PERMIAN BASIN/CONCHO VALLEY/BIG COUNTRY/EDWARDS PLATEAU

CITY           SKY/WX    TMP DP  RH WIND       PRES   REMARKS
ABILENE        SUNNY     76  69  79 S10       30.05R
BIG SPRING     MOSUNNY   76  69  79 SE12      30.06R
BRADY          SUNNY     73  70  88 N8        30.07R
BROWNWOOD      SUNNY     75  70  83 S10       30.06R
JUNCTION       SUNNY     73  68  84 VRB3      30.07R
MIDLAND        MOSUNNY   74  67  78 SE14      30.04R
ODESSA         MOSUNNY   74  67  78 SE10      30.05R
SAN ANGELO     SUNNY     75  68  78 S12       30.03R
SONORA         PTSUNNY   73  68  83 S9        30.10R
SWEETWATER     MOSUNNY   74  70  87 SE12      30.08R
WINK           SUNNY     74  67  78 SE10      30.00R
$$

TXZ055-058-074-075-080-082-051400-
FAR WEST/SOUTHWEST MOUNTAINS/TRANS PECOS

CITY           SKY/WX    TMP DP  RH WIND       PRES   REMARKS
ALPINE         MOSUNNY   71  62  74 SW6       30.17S
DRYDEN           N/A     74  67  78 VRB3      30.01R
EL PASO        PTCLDY    71  66  84 SE7       30.05R
FORT STOCKTON  MOSUNNY   73  66  78 SE14      30.03R
GUADALUPE PASS PTSUNNY   69  61  75 S5        30.17R
MARFA          PTSUNNY  N/A N/A N/A CALM      30.17R
PECOS          SUNNY     73  64  74 CALM      29.99R
$$

TXZ014-016-019-021>030-083-051400
TEXAS TECH WEST TEXAS MESONET/TEXAS PANHANDLE/NORTHERN SOUTH PLAINS

CITY           SKY/WX    TMP DP  RH WIND       PRES   REMARKS
ABERNATHY 5ENE   N/A     73  65  77 S13       30.08S
AMARILLO 9NNE    N/A     74  63  67 S13       30.03S
AMARILLO 7SSE    N/A     71  62  75 S12       30.07R
AMHERST 1NE      N/A     67  62  83 S8        30.08S
BOOTLEG 11WNW    N/A     69  61  76 S17       30.11S
CANADIAN 6E      N/A     74  66  77 SE3       29.97R
CAPROCK CYN SP   N/A     75  66  71 S9        30.04R
CHILDRESS 2NNE   N/A     76  64  67 S12       29.99S
CLARENDON 2WSW   N/A     74  63  69 S8        30.03S
CLAUDE 12SW      N/A     73  64  72 S10       30.07R
DIMMITT 2NE      N/A     68  62  81 S13       30.09R
FLOYDADA 2NNE    N/A     72  64  76 S10       30.06S
FRIONA 2NE       N/A     69  61  76 S13       30.09S
GOODLETT 3W      N/A     77  65  65 S12       29.98R
HART 3N          N/A     69  63  81 S9        30.08R
HEREFORD 2NW     N/A     69  60  73 S8        30.08R
MCLEAN 1E        N/A     72  64  74 SW10      30.01S
MEMPHIS 1NE      N/A     74  65  74 SE2       30.00S
MULESHOE 2SSW    N/A     67  63  86 SW3       30.09R
OLTON 6S         N/A     70  63  78 S12       30.07S
PALO DURO SP     N/A     72  62  72 S10       30.07S
PAMPA 2E         N/A     72  63  72 S10       30.04R
PLAINVIEW 1S     N/A     71  66  82 S8        30.07R
SILVERTON 7ESE   N/A     73  64  74 S13       30.06S
TULIA 2ENE       N/A     70  64  83 S12       30.07R
TURKEY 2WSW      N/A     76  67  71 SW12      30.02R
UMBARGER 3NNE    N/A     71  62  73 SW14      30.08R
$$

TXZ033>036-039>041-045>048-051400
TEXAS TECH WEST TEXAS MESONET/SOUTH PLAINS

CITY           SKY/WX    TMP DP  RH WIND       PRES   REMARKS
AIKEN 3WSW       N/A     73  65  78 S10       30.08R
ANDREWS 2NE      N/A     73  65  76 SE9       30.06S
ANTON 6SSW       N/A     69  64  82 S8        30.07S
BROWNFIELD 2S    N/A     70  64  82 SE8       30.07S
DENVR CTY 7WNW   N/A     67  60  78 E2        30.08R
GAIL 2ESE        N/A     71  66  84 SE6       30.05R
LAMESA 2SE       N/A     73  67  81 SE9       30.06S
LEVELLAND 4S     N/A     67  62  83 S6        30.08R
LUBBOCK 3WNW     N/A     73  64  73 S10       30.07R
MORTON 1ENE      N/A     69  62  79 S9        30.08S
ODONNELL 1N      N/A     70  64  82 SE7       30.07S
PLAINS 3N        N/A     69  62  77 SE7       30.08S
RALLS 1SE        N/A     73  65  75 S13       30.07S
REESE CENTER     N/A     69  64  83 S9        30.07S
SEAGRAVES 1SW    N/A     70  65  84 SE6       30.07S
SEMINOLE 2NNE    N/A     70  65  82 SE9       30.06S
SLATON 2NE       N/A     74  65  74 S13       30.07R
SNYDER 3E        N/A     74  69  83 S13       30.04S
SUNDOWN 8SW      N/A     66  62  87 S6        30.08S
TAHOKA 3NNE      N/A     71  66  82 S10       30.07R
WOLFFORTH 6SSW   N/A     69  64  84 S8        30.07S
$$

TXZ031-032-036>038-042>044-051400-
TEXAS TECH WEST TEXAS MESONET/ROLLING PLAINS

CITY           SKY/WX    TMP DP  RH WIND       PRES   REMARKS
ASPERMONT 3NE    N/A     74  68  80 SE6       30.02R
FLUVANNA 3WNW    N/A     73  66  79 S12       30.05S
GRAHAM 5SSW      N/A     71  64  79 SE6       30.06R
GUTHRIE 10WSW    N/A     75  66  73 S7        30.01S
HASKELL 1NW      N/A     78  67  69 S10       30.01S
JAYTON 1SSE      N/A     75  68  78 S8        30.02S
KNOX CITY 3NW    N/A     79  67  67 S13       30.00S
LK A HENRY 1NW   N/A     76  68  76 S12       30.03S
NORTHFIELD 1S    N/A     76  66  72 SW6       30.00S
ODELL 4ENE       N/A     78  69  74 S12       29.99R
PADUCAH 10SW     N/A     75  65  72 S9        30.01S
POST 1NE         N/A     75  66  73 S7        30.05R
RRING SPRGS 3N   N/A     73  66  80 S7        30.04R
SEYMOUR 3NW      N/A     78  68  71 S10       29.99S
SPUR 1W          N/A     73  65  76 S3        30.03R
WEINERT 2NNE     N/A     78  69  75 S12       30.01S
WHITE RVR 6NE    N/A     74  64  73 S3        30.05S
$$

TXZ052-054-060>062-072-078-127-140-154-169-051400-
TEXAS TECH WEST TEXAS MESONET/PERMIAN BASIN/
CONCHO VALLEY/BIG COUNTRY/EDWARDS PLATEAU

CITY           SKY/WX    TMP DP  RH WIND       PRES   REMARKS
COYANOSA 2N      N/A     76  67  75 SE12      30.00S
JUNCTION 1SSW    N/A     74  68  80 S10       30.07R
MERTZON 3NNE     N/A     73  67  84 S12       30.05R
SAN ANGELO 7NW   N/A     75  66  74 S8        30.05R
STRLNG CT 4WSW   N/A     75  66  74 SE10      30.06R
ST LAWRNCE 5SW   N/A     72  66  80 SE14      30.05R
SWEETWATR 11SW   N/A     74  69  85 SE13      30.06S
WALL 1E          N/A     74  66  75 SE16      30.04R
$$

TXZ055-058-074-075-080-082-051400-
TEXAS TECH WEST TEXAS MESONET/FAR WEST/SOUTHWEST MOUNTAINS/TRANS PECOS

CITY           SKY/WX    TMP DP  RH WIND       PRES   REMARKS
PRSMN GAP BBNP   N/A     76  65  70 NE10      30.04R
$$



USA.gov is the U.S. government's official web portal to all federal, state and local government web resources and services.